Wetbulb
58.57 58.47 58.36 58.17 58.38 57.53 57.23 57.15 57.11 57.21 57.19 57.07 56.85 57.11 57.29 57.45 57.75 57.97 58.16 58.31 58.16 58.12 58.18 58.74 59.87 60.71 58.55 54.94 54.18 72.03 77.74 77.69 75.12 72.58 69.97 70.04 67.09 64.18 60.34 62.84 65.36 61.58 64.48 63.96 64.91 64.68 63.34
58.52 58.40 58.52 58.01 57.31 57.27 57.07 56.89 56.94 56.92 56.70 56.65 56.69 56.94 57.15 57.12 57.55 57.86 57.94 58.01 57.49 57.55 58.01 58.85 60.13 60.84 55.58 48.16 61.16 71.63 69.16 72.15 70.89 71.11 70.33 71.25 68.10 68.35 66.28 65.24 63.41 64.99 63.44 64.65 65.35 64.70 63.87
58.73 58.39 58.16 57.40 57.07 56.99 56.90 56.67 56.63 56.61 56.64 56.57 56.65 56.89 57.00 57.00 57.18 57.45 57.39 57.36 57.05 57.24 58.03 59.17 61.04 61.06 55.18 54.11 68.31 68.39 67.36 67.63 70.76 71.37 69.81 72.43 71.88 67.77 67.13 63.50 66.09 65.43 61.85 63.86 63.42 63.96 63.83
58.55 57.64 57.35 57.16 57.08 57.12 56.69 56.55 56.33 56.71 56.81 56.87 56.73 56.69 56.59 56.69 56.65 56.43 56.39 56.54 56.35 57.38 58.69 60.71 62.15 58.27 52.83 59.44 60.35 66.83 67.74 69.26 71.94 72.02 71.92 70.91 71.57 68.08 66.76 66.37 65.73 62.14 61.69 57.30 62.21 62.78 63.78
57.98 57.83 57.40 56.96 56.94 57.22 57.28 56.89 56.51 56.78 56.90 56.91 56.91 56.77 56.61 56.63 55.94 55.24 55.08 55.63 56.72 58.67 60.91 62.78 57.86 55.83 53.37 63.36 57.19 59.11 69.30 67.75 69.25 69.89 70.37 70.33 68.66 64.66 64.55 61.89 58.22 59.56 53.19 55.86 58.07 62.65 61.37
57.96 57.74 57.31 56.91 56.79 57.08 57.18 57.06 56.86 56.79 56.67 56.72 56.56 56.48 56.51 56.45 55.30 54.70 54.43 55.26 57.68 58.81 60.50 61.73 59.92 52.69 57.80 55.31 56.39 58.77 65.72 69.74 67.50 67.35 67.60 66.43 63.34 60.79 58.46 57.47 52.86 55.02 54.94 56.44 54.86 60.75 59.78
57.05 57.49 57.31 56.98 56.75 56.97 56.80 56.86 56.81 56.67 56.56 56.54 56.36 56.13 55.96 55.98 55.59 54.45 52.81 55.06 54.26 52.25 56.16 52.98 53.27 58.01 58.98 58.23 57.27 55.60 58.54 67.66 67.33 64.56 60.29 64.87 57.86 55.21 59.33 61.59 60.97 58.41 55.46 54.67 59.44 61.67 59.97
58.07 57.19 57.06 56.77 57.05 56.86 56.59 56.61 56.66 56.44 56.44 56.38 55.95 55.70 55.57 55.35 54.78 53.94 51.52 51.88 58.66 55.97 52.29 57.15 56.45 58.56 60.25 57.80 53.52 54.22 57.19 62.32 63.14 59.36 61.33 60.51 57.37 60.43 62.66 62.68 60.77 58.67 56.09 57.21 59.77 62.57 60.52
57.79 56.83 56.47 57.02 57.05 56.67 56.50 56.42 56.19 56.02 55.96 55.84 55.62 55.35 55.00 54.49 53.60 51.85 52.42 53.55 58.43 59.92 50.90 55.30 57.94 56.21 56.17 57.59 53.27 51.02 56.23 63.65 61.29 59.49 59.45 56.64 59.19 63.02 61.48 58.68 57.82 57.92 56.54 57.01 56.77 61.17 61.98
56.94 56.86 55.62 56.67 56.75 56.50 56.28 56.09 55.98 55.96 55.66 55.30 55.34 55.07 54.41 52.82 51.03 55.13 55.25 56.95 56.90 58.32 46.11 51.00 54.10 56.23 57.13 55.05 50.62 55.42 62.23 64.33 62.28 58.64 59.61 58.78 62.50 59.70 57.63 57.42 57.82 54.79 61.72 61.02 60.61 55.91 52.13
55.83 56.94 55.60 56.47 56.44 56.36 55.99 55.78 55.70 55.64 55.25 55.05 55.01 54.43 53.21 52.47 49.41 51.36 57.22 56.90 58.62 55.86 38.00 53.90 54.44 59.18 56.73 52.77 52.26 53.81 55.92 63.09 59.36 59.22 59.48 56.56 58.16 56.36 55.67 56.23 59.57 57.33 61.75 59.32 59.32 54.06 52.53
57.07 56.73 55.98 55.39 56.45 56.08 55.74 55.57 55.49 55.15 54.95 54.83 54.33 53.49 52.57 53.18 50.75 53.39 55.45 55.33 55.56 44.79 41.28 51.50 54.99 52.96 52.27 52.65 53.36 53.15 53.27 55.76 62.47 59.87 60.26 58.75 61.30 60.97 60.10 61.13 61.68 63.11 59.91 58.28 57.27 52.86 46.60
56.92 55.98 55.29 55.29 56.19 55.81 55.43 55.29 55.19 54.68 54.33 53.90 52.83 51.84 50.70 54.11 54.82 58.82 57.35 53.17 43.72 40.78 53.40 50.68 50.52 52.07 51.15 50.27 51.61 51.81 50.10 48.88 53.70 50.81 52.60 56.38 57.03 58.94 59.69 57.55 59.77 59.25 53.16 46.83 45.53 47.52 45.26
57.10 56.59 56.49 55.98 56.05 55.58 55.21 55.31 54.90 54.45 53.98 52.79 51.10 50.35 51.33 53.58 56.90 58.41 57.30 47.91 40.67 50.09 49.58 52.81 52.36 51.86 49.26 50.68 50.59 51.31 48.11 46.34 53.58 54.52 50.94 50.22 48.57 55.58 59.21 56.26 55.99 57.50 53.18 48.29 44.61 44.90 46.91
56.41 56.53 56.61 55.95 55.97 55.64 55.30 55.13 54.80 54.23 53.37 52.05 50.35 55.71 55.14 57.71 56.20 57.82 51.50 43.15 45.88 50.73 52.79 52.46 52.57 49.43 48.56 50.53 49.90 50.22 49.32 47.31 49.30 53.71 49.44 48.81 49.41 56.83 57.57 57.82 55.78 54.31 50.66 56.82 50.76 50.96 46.13
55.71 56.13 56.24 56.09 56.18 55.80 55.38 55.03 54.58 54.10 53.22 51.61 49.59 53.82 56.97 61.12 60.35 55.64 48.37 43.73 48.67 53.24 53.22 53.10 48.25 49.39 46.90 49.24 48.77 48.02 48.36 50.13 49.65 52.89 55.89 52.52 47.25 54.02 57.06 58.64 57.83 54.28 55.98 49.74 48.84 42.37 43.29
55.57 55.74 56.09 56.39 56.63 55.94 55.58 55.17 54.51 53.65 52.63 51.29 51.76 53.12 60.04 62.64 58.89 52.02 45.08 46.98 51.18 54.10 54.40 51.45 50.24 49.21 49.47 48.81 49.90 49.00 48.52 51.16 51.95 51.90 53.91 53.07 49.88 49.99 54.15 53.06 51.22 52.86 51.31 51.52 50.99 47.00 43.24
55.34 55.61 56.01 56.63 56.71 56.14 55.56 54.97 54.27 52.84 51.69 51.72 52.51 50.60 59.95 59.31 50.37 50.28 46.86 49.57 50.24 52.14 54.17 51.65 51.81 50.84 49.94 51.37 50.33 50.00 49.79 51.43 54.18 53.16 49.35 52.56 48.03 45.56 47.45 53.31 57.57 56.10 54.12 51.42 47.67 46.60 49.89
55.43 55.33 55.67 56.19 56.55 56.21 55.60 54.60 53.74 52.64 52.00 48.28 48.64 53.92 59.98 57.75 46.47 47.16 50.24 50.73 51.99 51.34 51.69 51.44 50.74 50.84 51.52 50.05 47.51 52.22 53.02 55.25 54.28 52.24 50.24 50.38 48.54 42.91 44.19 47.21 54.03 51.88 53.57 51.03 49.99 49.71 48.69
54.90 54.95 55.05 55.57 56.35 56.49 55.50 54.33 53.59 52.82 52.33 49.83 50.28 49.97 55.40 56.26 54.85 51.02 49.15 49.60 50.30 54.09 52.56 52.48 51.05 51.45 51.19 50.28 50.76 50.70 52.78 54.77 54.03 52.35 61.49 55.63 44.93 43.49 42.23 44.68 47.86 46.55 50.77 51.57 48.79 43.74 49.34
53.76 54.30 54.31 55.15 55.99 56.41 55.60 54.43 53.76 53.00 52.17 50.32 53.31 52.07 52.85 49.56 51.01 51.44 51.32 50.40 49.60 49.36 53.22 51.98 50.72 50.35 50.11 47.20 49.62 49.95 53.12 52.21 54.34 57.77 52.34 48.07 42.65 47.76 46.12 49.15 48.83 48.29 48.70 50.16 49.65 50.01 48.41
53.22 54.45 54.64 55.03 55.55 56.28 55.70 54.68 54.15 53.08 51.95 52.35 51.26 49.01 50.93 49.39 50.08 49.39 49.42 49.57 50.16 51.03 51.05 50.21 49.46 50.58 50.66 47.37 48.45 48.09 50.41 50.21 50.97 51.73 47.94 49.07 44.27 49.07 44.58 49.17 49.44 47.99 49.10 49.25 52.02 53.60 53.54
52.83 53.67 54.21 54.49 55.15 55.96 55.75 54.71 54.27 53.23 51.96 52.53 54.79 53.55 50.54 48.27 48.25 47.00 47.53 49.57 50.78 52.11 53.28 53.29 52.34 51.67 50.72 50.76 52.24 52.12 52.46 51.82 51.45 50.12 49.45 47.73 45.71 43.76 39.90 47.28 47.46 44.64 47.66 48.53 48.72 50.12 56.27
52.51 53.13 53.90 53.98 54.35 55.90 55.47 54.76 54.44 53.86 52.67 50.48 52.62 52.88 48.04 45.30 48.23 48.44 50.02 50.72 50.47 51.44 50.20 52.43 53.04 50.70 51.99 53.93 53.31 52.76 52.46 52.30 52.76 52.34 51.54 48.54 46.37 45.40 42.18 44.40 38.54 46.94 51.29 51.69 50.16 51.00 50.38
52.55 52.72 53.61 54.03 54.14 55.23 55.12 54.95 54.68 54.13 53.53 50.32 53.00 52.37 48.98 44.65 48.27 48.93 49.70 49.84 50.51 51.09 50.64 51.11 53.00 53.43 53.09 50.97 46.95 46.53 46.20 47.75 50.64 52.55 50.84 50.23 48.02 44.79 42.37 42.17 45.46 49.52 51.34 51.02 48.53 48.81 52.38
52.28 52.55 52.90 53.73 54.19 54.83 54.98 54.32 54.57 54.38 53.61 51.22 52.13 56.12 51.49 46.51 46.67 50.12 48.55 50.09 46.74 46.80 47.98 50.73 53.80 53.84 51.48 47.97 44.89 40.82 41.20 45.92 46.53 48.55 49.03 49.55 48.66 46.24 44.49 41.96 40.94 49.01 54.45 56.83 55.27 46.84 62.04
52.09 52.13 52.69 53.31 54.04 54.44 54.90 54.32 53.97 54.44 53.80 52.04 52.53 56.08 51.94 47.18 51.19 51.20 47.65 46.93 50.52 48.91 46.80 48.97 50.01 50.62 51.28 44.81 41.35 40.32 40.64 47.49 43.11 44.06 45.57 45.45 45.91 43.23 44.40 42.69 46.90 54.00 56.40 57.62 49.03 51.61 62.45
52.12 52.00 52.33 52.94 53.80 54.55 54.67 53.98 53.63 54.18 54.49 52.79 51.94 56.41 52.12 47.60 49.02 52.56 52.74 49.19 48.83 48.71 44.49 47.52 47.69 48.82 46.94 42.75 42.90 42.24 42.27 43.78 43.31 45.77 45.22 46.22 44.29 43.61 44.03 42.20 41.56 55.96 55.95 52.45 57.63 61.04 61.29
51.92 52.08 52.23 52.64 53.60 54.28 54.60 53.57 53.63 53.85 54.40 54.26 51.70 55.37 54.84 49.86 48.76 53.06 53.58 55.05 53.79 52.22 47.88 48.24 46.73 47.53 48.86 44.88 45.13 45.66 44.13 44.86 43.15 41.32 47.96 44.40 47.17 47.09 47.40 46.68 54.36 55.54 54.03 61.44 62.30 60.07 59.86
MSLP
1020.53 1020.22 1019.89 1019.57 1019.23 1018.96 1018.66 1018.29 1017.93 1017.54 1017.16 1016.78 1016.41 1015.98 1015.57 1015.09 1014.64 1014.18 1013.90 1013.51 1012.93 1012.71 1012.47 1012.20 1011.80 1011.50 1010.81 1009.83 1006.28 1004.37 1004.57 1005.20 1005.53 1005.50 1005.32 1005.60 1006.73 1008.03 1008.96 1007.88 1005.83 1004.97 1003.69 1002.74 1002.54 1002.72 1003.12
1020.61 1020.32 1019.96 1019.62 1019.29 1018.96 1018.65 1018.28 1017.89 1017.51 1017.08 1016.66 1016.29 1015.90 1015.46 1015.07 1014.52 1013.95 1013.52 1013.23 1012.84 1012.31 1012.23 1011.96 1011.73 1011.53 1010.93 1008.26 1003.63 1003.95 1004.67 1005.23 1005.16 1005.22 1004.76 1004.53 1005.17 1005.65 1006.10 1006.52 1005.67 1004.25 1004.12 1003.96 1003.60 1003.86 1003.58
1020.70 1020.41 1020.06 1019.77 1019.43 1019.04 1018.63 1018.19 1017.78 1017.38 1016.99 1016.60 1016.12 1015.72 1015.26 1014.78 1014.34 1013.82 1013.26 1012.81 1012.48 1012.03 1011.82 1011.68 1011.53 1011.16 1009.59 1005.75 1003.29 1003.94 1004.17 1004.47 1004.55 1004.54 1004.28 1004.09 1004.31 1005.47 1004.98 1007.18 1006.32 1005.26 1005.52 1004.99 1004.87 1005.24 1005.13
1020.80 1020.51 1020.17 1019.82 1019.44 1019.10 1018.73 1018.32 1017.85 1017.35 1016.88 1016.42 1015.95 1015.45 1015.02 1014.51 1014.04 1013.63 1013.06 1012.43 1011.97 1011.60 1011.33 1011.25 1011.29 1010.69 1007.88 1003.45 1002.94 1003.76 1003.76 1004.05 1004.03 1003.66 1003.61 1003.97 1003.92 1005.35 1005.04 1006.93 1007.32 1007.13 1006.66 1006.55 1006.22 1006.11 1006.37
1021.00 1020.65 1020.28 1019.88 1019.46 1019.06 1018.59 1018.14 1017.76 1017.29 1016.78 1016.29 1015.85 1015.31 1014.84 1014.27 1013.75 1013.29 1012.64 1011.90 1011.28 1010.96 1010.89 1010.91 1010.96 1010.00 1006.02 1002.29 1002.60 1002.69 1002.82 1003.25 1003.47 1003.21 1003.29 1003.08 1003.15 1004.62 1005.28 1006.43 1007.17 1007.06 1007.72 1007.63 1006.93 1006.69 1006.94
1020.97 1020.64 1020.39 1020.03 1019.61 1019.17 1018.65 1018.08 1017.54 1017.06 1016.59 1016.12 1015.66 1015.15 1014.72 1014.26 1013.71 1013.13 1012.24 1010.93 1010.45 1010.48 1010.44 1010.25 1009.26 1008.59 1004.65 1002.24 1001.88 1001.97 1002.03 1002.49 1002.89 1002.80 1002.79 1003.34 1004.01 1004.35 1005.24 1006.19 1007.74 1007.71 1007.88 1007.82 1007.80 1007.22 1007.46
1020.87 1020.52 1020.22 1019.92 1019.47 1019.06 1018.59 1018.08 1017.51 1016.93 1016.32 1015.74 1015.30 1014.85 1014.26 1013.91 1013.55 1013.18 1012.28 1010.38 1010.42 1009.97 1008.85 1007.04 1005.79 1004.46 1002.02 1001.26 1001.43 1001.80 1001.70 1002.11 1002.47 1002.67 1002.77 1003.06 1003.62 1003.89 1004.38 1005.30 1006.37 1007.22 1007.52 1007.83 1007.09 1007.03 1007.97
1020.79 1020.50 1020.16 1019.74 1019.28 1018.85 1018.38 1017.82 1017.34 1016.80 1016.22 1015.60 1015.03 1014.51 1013.91 1013.36 1013.15 1013.02 1013.08 1010.79 1006.76 1005.49 1005.71 1005.19 1004.19 1003.64 1001.85 1001.68 1001.32 1001.16 1001.47 1002.01 1002.36 1002.61 1002.55 1002.87 1002.93 1002.90 1003.59 1004.27 1004.57 1006.14 1007.18 1006.80 1006.75 1006.67 1008.06
1020.70 1020.37 1020.05 1019.69 1019.25 1018.78 1018.26 1017.75 1017.26 1016.72 1016.11 1015.50 1014.83 1014.17 1013.55 1012.91 1012.36 1012.29 1010.70 1008.21 1005.82 1005.12 1004.83 1003.00 1002.59 1002.41 1001.31 1000.86 1000.63 1000.57 1000.98 1001.38 1001.96 1002.41 1002.43 1002.53 1002.76 1003.17 1004.42 1004.26 1004.88 1004.90 1005.67 1006.33 1006.62 1006.61 1007.95
1020.65 1020.29 1019.97 1019.59 1019.09 1018.60 1018.13 1017.57 1016.98 1016.41 1015.87 1015.29 1014.63 1013.99 1013.43 1012.51 1011.93 1010.04 1008.38 1005.74 1005.54 1005.17 1004.68 1001.46 1000.57 1000.53 1000.40 999.99 999.93 999.81 1000.13 1000.95 1001.57 1001.87 1002.15 1002.15 1002.47 1003.22 1003.48 1004.37 1004.64 1004.57 1004.68 1005.47 1006.18 1007.03 1008.74
1020.54 1020.17 1019.81 1019.49 1019.03 1018.52 1018.01 1017.43 1016.75 1016.05 1015.41 1014.81 1014.26 1013.66 1013.22 1013.44 1012.21 1009.91 1006.07 1005.28 1004.59 1004.45 1003.62 998.36 998.95 998.52 999.20 999.74 999.89 999.83 999.80 1000.41 1000.96 1001.31 1001.73 1001.65 1002.47 1003.51 1003.77 1003.60 1003.34 1004.20 1003.76 1005.04 1006.20 1007.57 1008.83
1020.57 1020.15 1019.74 1019.35 1018.91 1018.35 1017.76 1017.08 1016.38 1015.65 1014.93 1014.24 1013.62 1013.29 1012.94 1011.80 1012.03 1007.90 1005.89 1005.35 1004.69 1004.72 1001.31 998.11 998.28 998.60 999.41 999.64 1000.05 999.81 999.97 1000.08 1000.58 1001.15 1001.10 1001.05 1000.61 1002.04 1001.96 1002.98 1003.42 1003.86 1004.58 1005.75 1006.99 1008.04 1009.55
1020.56 1020.11 1019.68 1019.26 1018.77 1018.18 1017.59 1016.87 1016.08 1015.28 1014.42 1013.53 1012.71 1012.48 1012.87 1011.44 1008.47 1006.02 1006.07 1005.70 1005.25 1003.14 998.78 998.12 998.08 998.42 999.18 999.69 999.96 999.87 1000.05 1000.16 1000.49 1001.18 1001.17 1000.99 1000.38 1000.06 1000.35 1002.51 1003.24 1003.39 1005.10 1006.87 1008.22 1009.01 1010.13
1020.54 1020.01 1019.49 1019.08 1018.63 1018.04 1017.40 1016.67 1015.84 1014.95 1013.99 1012.90 1011.55 1010.68 1009.75 1009.06 1007.22 1006.67 1006.20 1006.04 1004.57 1000.89 998.93 997.52 997.67 998.23 998.82 999.47 999.68 999.73 999.75 1000.08 1000.37 1000.99 1001.16 1001.11 1000.44 999.76 999.57 1000.37 1001.92 1004.46 1006.04 1006.66 1007.71 1008.60 1009.79
1020.63 1020.05 1019.46 1018.93 1018.44 1017.89 1017.22 1016.49 1015.59 1014.60 1013.49 1012.36 1010.65 1008.56 1008.06 1006.44 1006.87 1007.07 1006.67 1005.60 1002.50 999.98 998.61 997.26 997.28 997.80 998.58 998.97 999.10 999.51 999.40 999.66 999.75 1000.28 1000.92 1000.68 999.89 999.08 999.91 1000.18 1002.01 1003.48 1004.62 1003.45 1005.85 1007.37 1008.83
1020.62 1020.04 1019.38 1018.80 1018.29 1017.72 1017.05 1016.36 1015.51 1014.35 1012.94 1011.97 1010.90 1008.45 1005.72 1004.47 1005.47 1006.23 1006.22 1004.34 1001.97 1000.11 999.01 997.96 997.60 997.03 997.87 998.31 998.80 998.99 998.95 998.51 998.82 999.20 999.79 1000.03 1000.23 999.49 999.97 1000.18 1000.81 1001.96 1001.63 1003.55 1006.27 1008.69 1010.00
1020.58 1020.01 1019.35 1018.75 1018.17 1017.67 1017.02 1016.30 1015.46 1014.36 1012.71 1010.86 1010.24 1007.24 1002.91 1003.30 1004.67 1005.54 1005.11 1003.53 1001.76 1000.04 999.33 998.43 998.05 998.00 997.85 998.16 997.66 997.82 997.95 997.64 997.61 998.08 998.70 999.54 1000.10 999.26 1000.41 1000.78 1002.01 1001.08 1001.68 1003.26 1006.11 1007.84 1008.75
1020.53 1019.97 1019.41 1018.75 1018.11 1017.61 1016.96 1016.28 1015.63 1014.67 1013.01 1010.93 1009.66 1006.15 1002.76 1003.07 1004.28 1004.49 1004.10 1003.05 1001.63 1000.30 999.24 998.39 998.41 998.44 998.37 997.93 997.86 997.31 996.65 996.28 996.10 996.80 997.77 998.38 999.16 999.60 999.38 999.00 998.86 999.27 1000.99 1002.01 1003.94 1005.97 1006.28
1020.57 1020.01 1019.42 1018.80 1018.14 1017.59 1016.97 1016.32 1015.73 1015.19 1014.78 1014.02 1010.80 1006.32 1002.58 1002.89 1003.64 1003.77 1003.17 1002.20 1001.42 1000.20 999.24 998.68 998.63 998.49 998.40 998.25 998.10 997.09 996.16 995.18 995.09 995.85 996.64 997.40 998.48 999.30 999.11 998.79 998.80 998.92 999.09 999.92 1001.22 1002.40 1003.96
1020.70 1020.07 1019.47 1018.88 1018.18 1017.53 1016.95 1016.31 1015.66 1015.15 1014.83 1014.40 1011.25 1006.65 1003.47 1003.15 1003.22 1003.24 1002.86 1001.89 1000.65 999.57 998.91 998.74 999.11 998.97 998.88 998.61 998.10 997.57 996.43 995.40 994.96 996.01 996.42 996.59 997.71 998.67 999.17 998.78 998.26 998.33 998.16 998.58 999.73 1001.36 1003.08
1020.72 1020.07 1019.45 1018.86 1018.22 1017.53 1016.96 1016.31 1015.54 1014.71 1013.87 1013.86 1010.59 1007.18 1006.17 1004.49 1003.80 1003.78 1002.90 1001.98 1000.86 999.82 998.73 998.81 999.44 999.67 999.71 999.72 999.23 998.52 997.43 996.75 996.16 996.34 996.37 996.75 997.96 998.40 998.45 998.34 997.88 997.63 997.63 997.91 998.64 999.35 1001.49
1020.73 1020.08 1019.42 1018.83 1018.25 1017.61 1017.07 1016.46 1015.67 1014.61 1012.95 1012.37 1010.35 1009.18 1007.74 1006.63 1005.08 1004.02 1002.77 1001.95 1001.22 1000.29 999.90 999.72 999.75 999.84 1000.02 1000.65 1001.23 1000.45 999.74 998.54 997.52 997.06 996.97 997.20 998.13 998.57 998.99 998.72 998.23 997.80 997.24 997.17 997.47 997.93 999.88
1020.70 1020.09 1019.45 1018.88 1018.30 1017.70 1017.18 1016.67 1016.06 1015.30 1013.70 1012.63 1011.35 1010.27 1009.31 1007.36 1006.16 1005.14 1003.65 1002.49 1001.72 1001.11 1000.28 1000.29 1000.64 1000.27 1000.74 1001.61 1001.58 1001.09 1000.52 999.87 998.82 998.29 997.74 998.26 998.78 999.55 999.72 999.34 998.84 998.10 997.24 996.74 996.84 996.97 998.66
1020.66 1020.07 1019.42 1018.89 1018.35 1017.72 1017.30 1016.90 1016.46 1016.08 1015.98 1015.40 1013.33 1011.90 1010.42 1008.49 1007.12 1005.79 1004.60 1003.55 1002.59 1002.73 1002.59 1001.77 1001.57 1001.36 1002.57 1002.13 1001.48 1000.84 1000.04 999.59 998.97 998.18 997.77 998.43 999.30 999.78 1000.28 1000.06 999.29 998.03 996.75 996.31 996.44 996.50 996.70
1020.60 1020.07 1019.46 1018.87 1018.38 1017.75 1017.38 1017.01 1016.65 1016.23 1015.92 1015.45 1013.85 1012.61 1011.33 1009.82 1008.23 1006.65 1005.59 1004.82 1003.69 1003.46 1003.29 1002.88 1002.54 1002.82 1002.78 1002.90 1002.76 1001.90 1000.86 1000.07 999.48 998.84 998.47 998.77 999.60 1000.33 1000.50 1000.29 999.27 997.74 996.77 996.44 996.18 996.33 996.14
1020.47 1020.00 1019.46 1018.85 1018.34 1017.84 1017.38 1016.99 1016.66 1016.29 1015.83 1015.07 1013.75 1012.53 1012.24 1010.97 1008.84 1007.96 1006.96 1006.14 1005.60 1005.19 1004.59 1003.74 1003.20 1002.80 1003.28 1004.16 1004.27 1003.74 1002.51 1001.12 1000.42 999.63 999.08 999.32 999.71 1001.03 1000.91 1000.41 999.15 997.76 996.21 995.59 995.60 996.70 996.48
1020.27 1019.83 1019.36 1018.81 1018.26 1017.79 1017.35 1017.04 1016.69 1016.35 1015.99 1015.67 1013.97 1012.92 1012.57 1011.62 1009.48 1008.51 1007.92 1007.66 1007.35 1007.01 1006.30 1005.66 1005.42 1004.09 1004.08 1005.30 1005.49 1004.97 1003.76 1002.57 1001.59 1000.78 1000.56 1000.52 1000.76 1001.20 1001.01 1000.28 998.87 997.16 996.52 995.70 996.85 998.74 997.59
1020.01 1019.61 1019.18 1018.69 1018.17 1017.65 1017.30 1017.04 1016.77 1016.42 1016.09 1015.84 1014.36 1013.08 1012.91 1012.30 1010.70 1009.60 1008.90 1008.67 1008.35 1008.07 1008.26 1007.96 1006.81 1006.17 1005.82 1006.25 1006.01 1005.49 1004.20 1003.07 1002.28 1001.64 1001.15 1001.16 1001.19 1001.18 1001.01 1000.34 999.20 997.11 997.16 997.66 998.23 998.62 998.68
1019.79 1019.37 1018.99 1018.52 1018.01 1017.54 1017.22 1017.04 1016.80 1016.48 1016.18 1015.83 1014.42 1013.45 1013.39 1012.97 1011.22 1010.33 1009.68 1009.15 1008.96 1008.98 1009.14 1008.96 1008.79 1008.32 1007.89 1007.78 1007.32 1006.54 1005.28 1004.01 1003.36 1002.53 1001.44 1001.28 1001.00 1000.81 1000.30 999.62 998.71 997.35 997.79 997.92 998.03 998.98 999.50
Wind_Speed
14 15 16 16 15 16 16 16 16 16 16 16 17 17 17 18 18 19 17 17 19 18 17 15 14 12 6 4 12 6 11 9 8 8 11 13 7 7 5 7 4 2 7 13 9 13 9
13 15 15 16 16 16 16 17 17 17 17 18 17 17 17 17 18 19 19 17 18 20 16 15 12 10 3 6 7 13 10 9 9 9 10 15 10 13 8 6 10 4 5 10 16 18 9
14 15 16 16 16 16 17 18 18 18 18 18 18 18 18 19 19 20 20 19 19 20 17 12 9 5 5 17 8 8 11 7 10 11 14 10 11 19 6 14 20 13 3 8 13 12 8
14 16 16 16 16 16 16 17 18 18 18 18 19 20 19 20 20 20 20 20 21 19 15 10 6 5 10 10 13 10 10 9 11 12 17 5 8 7 6 5 10 6 6 2 2 6 5
14 14 15 16 16 16 17 18 18 17 17 18 18 19 20 20 22 22 21 23 22 16 9 4 4 4 10 5 6 12 12 11 11 13 5 5 5 2 3 4 2 6 3 5 10 5 2
13 13 15 15 15 15 16 17 18 18 18 18 18 19 18 18 21 21 23 24 10 9 5 8 9 4 8 11 9 10 9 12 10 12 13 6 2 7 2 5 1 4 1 1 7 1 7
16 15 16 16 16 15 16 17 18 19 20 21 20 20 20 18 17 15 13 4 1 2 7 12 12 8 10 14 8 11 11 13 13 10 11 15 5 8 12 9 8 7 6 9 8 14 4
13 15 15 17 16 16 17 18 18 19 20 21 21 21 21 20 17 13 6 5 11 5 7 22 22 20 20 8 11 13 13 12 13 14 11 12 13 10 9 14 13 15 12 11 13 14 12
13 14 16 16 15 16 17 18 18 19 19 20 21 21 21 21 21 6 8 12 12 18 5 10 18 14 20 13 18 12 17 15 10 16 13 12 6 10 6 7 10 7 11 5 10 9 7
14 13 17 16 16 17 18 19 19 20 20 20 21 21 20 24 4 5 7 11 18 16 5 9 14 9 15 5 6 11 15 12 16 15 17 14 7 10 10 7 5 4 9 15 10 7 2
16 13 17 14 17 17 18 19 20 21 21 21 21 20 18 6 10 5 8 13 6 1 5 7 13 7 8 12 5 11 10 12 16 16 12 14 14 14 5 9 18 8 6 3 5 4 3
14 14 15 18 17 18 19 20 21 22 23 23 22 19 17 0 6 14 14 14 1 1 8 5 11 10 15 10 16 6 12 12 11 16 18 15 13 11 12 11 15 4 2 7 7 3 4
16 15 16 16 16 18 19 20 22 23 24 25 25 19 8 8 7 9 8 4 1 5 10 13 14 12 18 11 16 13 14 15 14 10 16 16 20 17 7 11 7 11 6 2 5 4 5
18 17 15 14 15 18 19 21 22 24 26 27 29 27 10 10 9 11 7 2 6 10 12 2 11 12 15 13 13 16 9 14 14 13 7 12 16 15 15 10 10 9 6 4 5 4 3
18 19 18 15 15 18 20 21 23 25 27 28 30 2 4 7 14 5 2 5 7 7 14 7 17 13 9 11 8 15 16 13 13 16 15 10 17 18 8 9 4 10 9 9 1 6 3
18 19 19 17 15 19 20 21 23 27 30 27 5 5 8 7 13 5 3 8 9 13 17 12 7 4 10 16 14 11 14 12 13 14 16 20 15 11 4 8 22 7 2 6 5 4 6
18 19 20 18 18 19 20 22 24 27 32 29 3 4 6 14 10 2 6 7 10 17 16 6 10 11 12 4 15 15 12 14 13 14 16 17 14 22 10 7 12 9 2 5 9 7 9
18 18 19 20 18 19 21 21 22 23 30 9 6 3 7 8 4 4 8 7 8 22 22 2 5 8 11 14 7 15 19 13 19 19 15 15 9 10 15 13 14 9 9 7 6 6 2
20 19 19 21 18 19 20 21 21 19 15 7 6 5 5 6 4 8 9 18 19 20 20 5 6 7 11 11 8 8 5 16 9 16 17 10 12 9 12 8 6 7 12 8 6 3 6
20 20 20 20 21 18 20 21 21 20 15 5 5 4 3 4 6 11 11 12 14 19 17 5 8 10 11 8 8 8 13 8 5 5 4 7 3 9 10 10 5 5 8 10 9 2 4
22 22 20 19 20 18 20 22 23 24 24 2 4 3 5 2 2 9 11 13 17 16 8 7 3 9 9 8 10 10 11 2 5 2 2 3 3 4 7 7 9 11 10 10 9 8 9
21 22 20 19 20 19 18 21 23 26 32 4 4 5 7 10 10 12 11 5 11 15 10 5 7 12 7 6 7 8 11 8 4 1 1 3 3 2 6 9 12 15 12 11 6 7 10
20 22 21 19 20 19 17 19 20 22 22 5 5 5 4 7 8 9 8 9 10 11 9 9 15 5 6 10 10 12 11 10 9 6 7 3 4 3 5 7 10 11 7 7 9 7 17
19 21 21 19 20 18 15 17 18 17 12 4 4 7 4 6 8 9 17 21 6 7 8 11 11 6 6 9 10 9 10 11 9 11 3 7 4 3 4 3 8 8 10 11 9 9 5
19 19 21 19 19 18 15 15 16 16 14 4 5 4 4 6 10 12 15 14 11 9 7 10 9 2 6 7 6 7 4 5 5 10 7 3 2 2 5 5 8 7 12 13 7 10 9
19 18 19 19 18 18 14 16 15 16 15 6 6 3 3 4 1 16 10 11 5 7 8 9 10 5 6 3 2 3 3 3 4 3 5 6 5 5 4 1 5 9 12 8 9 2 19
17 18 18 19 17 17 15 14 15 15 15 7 5 6 3 5 3 9 6 6 6 7 5 6 12 6 9 2 2 3 6 6 5 4 7 3 4 3 4 4 5 7 8 6 8 2 12
17 17 17 18 18 17 13 11 13 14 14 9 7 7 3 4 10 8 10 6 8 6 4 9 8 8 3 1 3 4 5 6 5 6 6 6 5 4 3 3 8 7 8 4 5 9 10
18 16 16 16 17 15 12 10 11 12 13 11 4 7 7 4 7 14 13 11 7 6 3 5 5 7 6 5 6 5 5 4 4 7 7 7 6 5 9 7 6 12 4 5 12 10 8
Wind_Direction
7 4 2 1 359 358 356 354 352 350 347 346 344 341 339 334 329 325 323 318 314 315 316 316 315 323 319 233 250 124 119 116 149 216 224 233 144 107 262 229 253 187 340 104 106 100 107
4 0 357 0 357 355 353 351 348 347 344 343 342 340 335 331 327 323 319 315 311 309 311 310 309 312 247 254 237 144 148 143 193 195 230 243 164 197 210 216 284 232 269 6 66 12 158
10 359 1 359 356 353 350 348 345 343 341 340 339 338 333 330 327 322 316 310 308 304 304 301 294 265 257 238 129 156 168 179 211 191 229 245 74 281 330 66 302 290 224 37 30 29 23
3 2 357 355 353 350 347 346 342 339 338 337 336 335 332 329 326 322 314 307 303 298 294 277 258 246 251 256 240 201 191 189 218 227 228 265 150 228 130 276 281 265 44 47 326 50 360
5 359 356 352 350 346 342 340 339 337 335 333 332 330 329 327 327 323 314 303 298 287 257 261 187 239 264 227 192 218 184 204 211 239 209 220 103 213 143 135 338 32 167 341 326 127 172
357 357 355 350 347 343 339 337 336 335 333 331 329 327 325 323 325 323 316 295 281 309 223 185 263 291 257 230 192 218 211 197 213 233 238 182 190 237 111 80 46 201 185 228 245 306 184
358 354 356 348 346 342 339 336 335 333 331 329 328 325 323 322 320 325 339 347 281 238 242 202 191 236 272 208 191 205 229 196 228 236 238 209 219 231 229 144 190 252 146 224 256 237 236
350 352 354 347 342 339 337 335 333 331 328 326 326 324 322 319 315 317 294 245 255 323 256 226 252 231 263 279 217 203 210 202 218 236 231 252 230 237 158 183 193 161 191 200 262 227 200
344 347 349 346 339 337 335 332 330 328 326 324 323 322 321 317 312 278 216 237 279 299 288 269 210 232 243 240 222 197 203 202 209 231 232 234 259 109 113 351 299 198 194 256 235 150 97
344 339 347 347 338 335 333 330 328 326 324 322 321 320 322 324 302 322 231 231 243 258 295 253 183 223 244 208 272 188 204 192 226 225 230 246 160 93 62 296 283 210 179 214 236 27 75
344 340 343 342 338 332 330 328 325 324 323 321 319 318 318 329 309 268 292 326 228 342 280 163 163 196 227 172 155 239 220 204 224 236 227 242 137 140 164 203 255 254 160 156 80 68 91
342 341 339 342 337 333 329 327 326 324 322 320 316 316 325 136 203 246 290 299 313 291 250 146 151 207 193 191 220 240 212 222 216 242 252 250 245 163 200 255 223 143 49 42 33 39 53
342 339 341 340 333 332 329 327 325 324 323 319 312 306 289 297 233 350 289 298 187 231 286 144 158 173 186 202 215 223 215 211 205 222 247 264 268 265 201 172 144 166 112 294 352 23 221
350 343 336 335 331 332 330 329 327 326 324 321 313 306 231 212 246 275 273 228 242 244 242 71 162 189 187 202 207 235 210 203 206 226 251 237 269 258 255 158 158 131 213 199 245 194 209
349 346 339 335 330 332 333 332 331 329 326 325 312 195 218 228 221 257 286 214 219 235 347 332 164 167 185 214 207 205 238 206 204 202 231 243 255 253 5 11 94 214 221 180 56 322 74
344 340 337 339 335 334 335 335 335 332 330 332 307 275 235 196 168 201 231 243 253 313 310 341 335 173 169 195 211 196 225 209 202 209 206 252 274 276 311 309 313 241 224 65 18 90 5
342 340 339 340 336 335 336 338 339 337 334 326 238 251 232 165 163 188 226 246 279 268 276 287 322 320 321 275 202 209 213 235 196 216 205 220 242 277 148 159 202 241 101 82 105 162 152
344 344 344 340 336 336 338 341 343 343 338 358 308 270 150 148 161 204 235 247 271 285 289 347 303 291 298 299 313 227 211 206 205 205 213 208 204 247 256 238 196 193 205 148 132 254 245
347 347 344 342 338 338 339 340 343 347 7 319 306 282 169 173 217 234 249 243 252 271 280 290 297 253 279 292 316 323 267 221 221 198 203 207 216 238 283 289 243 203 230 184 203 151 191
345 344 342 340 342 336 340 340 340 341 341 320 277 280 192 183 241 267 282 285 270 248 251 308 315 326 307 313 301 289 313 358 82 102 65 103 185 187 227 228 240 256 201 203 187 164 138
341 342 341 339 340 340 341 341 340 339 335 248 236 304 18 315 319 301 256 272 295 304 296 155 284 263 292 320 311 300 306 40 338 101 125 105 200 274 295 295 281 274 279 269 196 203 152
340 342 342 339 339 340 342 344 344 346 336 213 318 356 339 301 305 308 304 286 284 298 299 277 206 240 261 298 22 328 0 29 293 64 37 333 272 336 306 314 308 298 297 297 283 216 80
339 341 341 342 338 339 343 346 349 357 346 342 346 347 299 300 314 317 298 292 300 315 309 309 354 18 23 19 333 306 295 286 285 283 173 197 176 170 257 281 297 297 277 294 298 296 140
338 338 341 340 339 337 344 346 350 359 14 316 288 319 288 295 314 309 314 324 313 58 338 348 351 10 11 344 311 305 273 259 281 300 187 181 195 153 216 275 259 256 294 282 277 268 288
336 336 338 340 338 340 343 343 347 349 354 314 285 300 313 303 324 322 346 330 351 341 325 315 325 90 20 6 355 317 274 315 293 286 302 1 84 259 170 207 247 279 265 259 251 272 260
334 336 334 337 337 339 337 341 344 347 350 323 288 343 318 295 177 328 330 322 350 343 321 313 334 224 69 34 325 254 275 339 230 272 270 309 328 116 318 256 233 236 256 279 291 118 42
330 332 331 335 334 334 332 337 339 344 347 334 287 308 310 290 281 348 1 344 350 342 314 25 336 332 92 149 241 246 257 297 256 269 243 249 285 249 288 242 288 282 337 29 358 176 61
328 328 330 331 332 328 326 332 336 340 346 349 286 296 12 308 306 336 358 349 344 354 354 344 333 3 349 292 210 241 247 237 278 269 236 215 184 226 257 293 257 288 20 64 178 63 70
326 325 326 328 332 335 330 332 332 336 342 341 298 357 341 264 285 308 286 284 288 323 338 338 298 321 341 358 17 339 340 326 285 274 290 260 209 211 187 216 265 294 121 95 98 98 65